Jackson, MI

6:45 PM EDT on April 30, 2017 (GMT -0400)
Jackson County-Reynolds

Weather History for KJXN - November, 2012

Change the Weather History Date:

Thursday, November 8, 2012

  Actual Average Record
Temperature  
Mean Temperature 37 °F 43 °F  
Max Temperature 51 °F 52 °F 67 °F (1986)
Min Temperature 23 °F 34 °F 12 °F (1991)
Degree Days  
Heating Degree Days 28 22  
Month to date heating degree days 238 167  
Since 1 July heating degree days 886 815  
Cooling Degree Days 0 0  
Month to date cooling degree days 0 0  
Year to date cooling degree days 873 592  
Moisture  
Dew Point 26 °F    
Average Humidity 67    
Maximum Humidity 92    
Minimum Humidity 42    
Precipitation  
Precipitation 0.00 in 0.09 in 0.41 in (1957)
Month to date precipitation T 0.70  
Year to date precipitation 22.87 27.73  
Sea Level Pressure  
Sea Level Pressure 30.19 in    
Wind  
Wind Speed 1 mph (WSW)    
Max Wind Speed 8 mph    
Max Gust Speed 12 mph    
Visibility 8 miles    
Events      
T = Trace of Precipitation, MM = Missing Value Source: NWS Daily Summary

Daily Weather History Graph

Daily Weather History Graph

Search for Another Location

Airport or City:

Trip Planner

Search our weather history database for the weather conditions in past years. The results will help you decide how hot, cold, wet, or windy it might be!

Date:

Astronomy

Nov. 08, 2012 Rise Set
Actual Time 7:20 AM EST 5:22 PM EST
Civil Twilight 6:50 AM EST 5:52 PM EST
Nautical Twilight 6:17 AM EST 6:25 PM EST
Astronomical Twilight 5:44 AM EST 6:58 PM EST
Moon 1:08 AM EST (11/8) 2:08 PM EST (11/8)
Length of Visible Light 11h 01m
Length of Day
10h 02m
Waning Crescent, 33% of the Moon is Illuminated
Nov 8
Waning Crescent
Nov 13
New
Nov 20
First Quarter
Nov 28
Full
Dec 6
Last Quarter

Hourly Weather History & Observations

Time (EST) Temp. Windchill Dew Point Humidity Pressure Visibility Wind Dir Wind Speed Gust Speed Precip Events Conditions
12:56 AM 28.9 °F - 24.1 °F 82% 30.17 in 8.0 mi Calm Calm - N/A   Clear
2:56 AM 24.1 °F - 21.0 °F 88% 30.17 in 4.0 mi Calm Calm - N/A   Clear
3:56 AM 25.0 °F - 21.0 °F 85% 30.18 in 4.0 mi Calm Calm - N/A   Clear
4:56 AM 24.1 °F - 21.0 °F 88% 30.19 in 6.0 mi Calm Calm - N/A   Clear
5:56 AM 23.0 °F - 19.0 °F 85% 30.20 in 5.0 mi Calm Calm - N/A   Clear
6:56 AM 23.0 °F - 19.0 °F 85% 30.22 in 7.0 mi Calm Calm - N/A   Clear
7:56 AM 24.1 °F - 21.0 °F 88% 30.23 in 7.0 mi Calm Calm - N/A   Clear
8:56 AM 30.0 °F - 28.0 °F 92% 30.25 in 4.0 mi Calm Calm - N/A   Clear
9:56 AM 39.0 °F - 30.9 °F 73% 30.24 in 7.0 mi Calm Calm - N/A   Clear
10:56 AM 42.1 °F - 30.9 °F 65% 30.24 in 10.0 mi Calm Calm - N/A   Clear
11:56 AM 45.0 °F - 30.0 °F 56% 30.22 in 10.0 mi Calm Calm - N/A   Clear
12:56 PM 46.0 °F - 28.9 °F 51% 30.19 in 10.0 mi Calm Calm - N/A   Clear
1:56 PM 48.0 °F - 28.9 °F 48% 30.18 in 10.0 mi Calm Calm - N/A   Clear
2:56 PM 50.0 °F - 28.9 °F 44% 30.17 in 10.0 mi SW 3.5 mph - N/A   Clear
3:56 PM 48.0 °F - 28.9 °F 48% 30.16 in 10.0 mi West 3.5 mph - N/A   Partly Cloudy
4:56 PM 46.9 °F - 28.9 °F 50% 30.16 in 10.0 mi Calm Calm - N/A   Clear
5:56 PM 44.1 °F 41.5 °F 28.9 °F 55% 30.17 in 10.0 mi West 4.6 mph - N/A   Clear
6:56 PM 39.9 °F - 28.0 °F 63% 30.17 in 10.0 mi Calm Calm - N/A   Clear
7:56 PM 35.1 °F 32.2 °F 28.0 °F 76% 30.17 in 9.0 mi SW 3.5 mph - N/A   Clear
8:56 PM 33.1 °F - 27.0 °F 78% 30.16 in 9.0 mi Calm Calm - N/A   Clear
9:56 PM 30.9 °F 27.5 °F 26.1 °F 82% 30.15 in 9.0 mi SW 3.5 mph - N/A   Clear
10:56 PM 35.1 °F 31.0 °F 28.9 °F 78% 30.16 in 7.0 mi WSW 4.6 mph - N/A   Clear
11:56 PM 35.1 °F - 30.0 °F 82% 30.16 in 6.0 mi Calm Calm - N/A   Haze